Lapse_Rate
6.8 6.9 7.0 7.4 7.4 7.3 7.3 7.4 7.4 7.4 7.7 8.2 8.3 8.7 9.4 8.9 8.3 8.8 8.5 8.2 7.8 8.1 8.1 7.9 8.0 8.2 7.8 7.4 7.6 7.7 7.3 7.3 7.5 7.1 7.2 7.3 7.1 6.8 6.8 6.8 6.7 6.5 6.4 6.4
6.4 6.5 7.5 7.6 6.9 7.0 7.2 7.3 7.1 7.4 7.7 8.4 8.2 8.1 8.2 8.9 8.6 8.5 8.7 8.8 8.1 8.1 8.0 8.1 8.1 8.2 8.1 7.8 7.6 7.7 7.6 7.3 7.4 7.1 7.1 7.1 7.1 6.8 6.7 6.7 6.5 6.3 6.3 6.5
6.4 6.9 7.7 7.5 6.9 7.0 7.0 7.0 7.0 7.2 7.7 8.1 8.1 8.1 7.9 8.2 8.2 8.1 8.0 8.3 8.4 8.0 8.0 7.8 7.8 8.1 8.1 7.7 7.7 7.8 7.8 7.5 7.4 7.4 7.3 7.1 7.1 6.8 7.0 7.0 6.7 6.5 6.4 6.5
5.9 6.3 6.6 6.6 6.6 7.3 6.8 7.2 7.0 7.4 7.8 7.7 8.1 7.8 7.7 7.9 8.2 8.5 8.6 8.2 8.1 8.2 8.1 8.2 8.2 8.1 8.2 8.0 7.8 7.8 7.8 7.8 7.4 7.5 7.3 7.0 7.2 7.1 7.2 7.2 6.9 6.7 6.5 6.6
6.2 6.8 7.1 6.7 6.6 7.2 7.6 7.8 7.6 7.8 8.1 8.1 7.7 8.1 6.7 7.5 7.6 7.8 8.4 8.4 8.1 8.1 8.3 8.3 8.2 8.1 8.0 7.9 8.0 7.6 7.5 8.0 7.8 7.5 7.2 6.9 6.9 7.2 7.1 7.0 6.8 6.9 6.8 6.6
6.0 6.0 6.2 6.3 6.7 7.4 7.6 7.8 7.8 8.0 8.3 8.2 7.3 7.9 6.7 7.0 7.1 7.3 8.0 8.2 8.2 8.4 8.4 8.3 8.3 8.1 8.0 8.1 8.0 7.9 7.5 7.9 7.9 7.7 7.5 7.0 7.0 7.2 7.1 7.1 7.1 7.2 7.0 6.6
6.0 6.1 6.3 6.5 6.4 6.7 7.2 7.8 7.4 7.3 7.6 7.4 7.4 8.5 7.1 6.8 7.3 7.5 7.8 7.9 8.5 8.6 8.7 8.5 8.5 8.6 8.2 8.2 8.1 8.0 8.1 7.7 7.8 7.6 7.5 7.0 6.9 6.9 7.1 7.0 7.0 7.2 7.2 6.7
5.9 5.9 6.4 6.4 6.6 6.6 7.1 7.4 7.7 6.7 6.0 7.0 7.9 8.6 7.4 7.2 7.2 7.6 7.8 7.9 8.8 8.8 8.6 8.7 8.5 8.6 8.4 8.2 8.0 8.0 8.1 7.9 7.8 7.4 7.1 7.0 6.9 6.7 7.1 6.9 7.0 7.1 7.0 6.8
6.5 6.0 6.5 6.7 6.6 6.9 6.7 7.9 7.5 8.0 8.1 7.3 6.8 7.1 7.4 7.0 7.0 7.5 7.7 8.0 8.3 8.9 9.1 8.8 8.9 8.8 8.8 8.1 7.9 7.9 8.1 8.1 7.7 7.6 7.0 6.8 6.7 6.5 6.6 7.2 7.0 6.8 6.7 6.8
6.6 6.6 6.5 6.5 6.9 6.7 6.5 6.9 7.7 8.1 7.2 6.5 6.4 6.1 6.5 6.8 7.1 7.8 7.8 8.1 8.3 8.5 8.7 8.9 9.2 9.1 8.7 8.4 8.0 8.2 8.1 8.4 8.0 7.5 7.0 6.6 6.7 6.8 6.3 6.4 6.7 6.6 6.9 7.0
8.1 7.6 5.8 6.4 6.0 6.0 7.2 6.9 7.8 7.8 8.4 6.9 6.4 6.9 6.4 6.7 6.9 8.1 9.0 8.9 8.6 8.3 8.0 9.1 9.3 9.3 8.4 8.0 7.9 8.3 8.2 8.2 7.9 7.5 6.9 6.8 6.4 6.4 6.3 6.0 6.2 6.9 7.1 7.0
7.9 7.2 6.3 5.4 6.5 6.9 7.1 6.9 7.6 7.3 6.8 6.8 7.0 6.9 6.9 6.7 6.9 8.1 8.1 8.0 8.3 8.8 8.9 9.0 9.1 8.8 8.4 8.3 8.0 8.5 8.5 8.1 8.0 7.4 6.9 6.7 6.3 6.4 5.8 6.3 6.6 6.9 6.8 6.5
7.8 7.4 6.9 6.0 7.1 7.5 7.1 7.1 6.8 6.5 7.2 5.8 5.8 6.1 7.6 7.2 7.1 8.4 8.4 8.2 8.4 9.2 8.6 8.7 8.8 8.5 8.6 8.7 8.0 8.0 8.0 8.0 7.8 7.3 7.2 6.8 6.2 5.8 5.6 6.2 6.3 6.4 6.3 6.2
8.0 7.7 7.1 6.4 6.0 6.4 6.4 6.6 6.8 5.8 5.9 5.9 6.1 6.1 7.0 6.7 6.2 7.3 8.1 8.5 8.4 8.2 8.8 8.9 8.5 8.5 8.6 8.6 8.1 7.9 8.0 7.8 7.5 7.0 6.7 6.5 6.3 6.1 5.6 6.4 6.4 6.5 6.1 5.9
8.3 8.1 7.8 7.4 6.6 6.4 6.4 6.1 6.4 6.7 6.1 5.9 6.0 6.3 6.1 7.0 6.5 6.6 7.4 8.3 8.3 7.9 8.4 8.2 8.6 8.6 8.5 8.1 8.0 8.1 8.0 8.1 7.6 7.1 6.9 6.8 6.7 6.5 5.6 6.0 6.0 6.0 6.0 6.0
7.3 7.3 7.3 6.9 6.9 6.6 6.2 6.4 6.6 6.5 6.3 7.4 6.8 6.8 6.5 6.7 6.0 6.6 6.8 7.9 7.9 7.9 7.8 8.4 8.3 8.3 7.9 7.7 7.6 7.7 7.9 8.4 8.1 7.6 7.1 7.4 7.4 7.1 6.4 5.8 6.0 5.9 5.9 6.0
7.0 7.1 6.9 6.7 7.0 6.8 6.7 6.2 6.5 6.6 7.3 7.3 7.0 6.7 6.9 6.6 6.7 6.9 6.9 7.5 7.8 8.3 8.4 8.1 8.4 8.2 7.6 7.4 7.4 7.6 7.9 8.1 7.8 7.6 7.6 7.8 7.4 7.3 6.4 6.0 5.7 5.8 5.6 5.6
6.9 6.9 7.1 6.8 6.9 6.8 6.3 6.5 7.2 7.0 7.5 8.1 7.6 7.1 7.0 6.8 6.7 6.7 7.5 7.9 7.6 7.8 7.9 8.3 8.4 8.1 7.6 7.4 7.4 7.4 7.3 7.3 7.1 7.1 7.3 7.7 7.5 7.3 6.7 6.1 5.6 5.7 4.9 4.0
7.7 7.4 7.2 7.2 7.2 7.2 7.3 7.1 7.2 7.6 7.5 7.7 7.5 7.8 7.5 6.9 7.1 7.2 6.8 7.1 7.5 8.1 8.0 8.2 8.2 7.9 7.9 7.7 7.3 7.1 7.0 7.1 7.1 7.2 7.2 7.6 7.4 7.1 6.3 6.2 5.9 5.3 4.5 4.0
8.1 7.7 7.8 7.2 7.3 7.2 7.3 7.3 7.6 7.7 7.4 7.7 7.9 7.8 7.5 7.3 6.7 6.2 6.8 7.7 7.4 7.6 7.9 8.0 8.1 8.3 8.1 7.8 7.1 6.9 6.6 6.5 6.8 7.2 7.0 7.4 7.2 7.3 6.0 5.7 5.9 5.2 4.2 3.5
8.1 8.0 7.5 7.4 7.4 7.3 7.5 7.6 7.9 7.9 7.2 7.6 8.2 8.0 7.0 6.7 6.4 5.8 5.9 6.5 6.7 6.7 7.6 7.8 8.3 7.9 7.6 7.0 6.7 6.8 6.4 6.3 6.7 6.8 6.9 7.3 7.2 6.8 5.7 5.4 5.3 4.5 3.6 2.7
7.8 8.1 8.0 7.8 7.4 7.3 8.4 8.1 7.7 8.0 7.7 7.4 7.4 7.4 6.7 6.7 6.3 6.1 6.1 5.7 6.6 6.9 6.8 7.1 7.5 7.8 7.7 7.0 6.6 6.7 6.6 6.3 6.3 6.9 7.2 7.2 6.9 6.2 5.2 5.1 5.0 3.7 2.8 2.7
7.3 7.5 7.9 7.8 7.9 8.1 8.0 8.0 7.9 7.9 7.6 7.5 7.5 7.4 7.3 6.9 6.1 6.1 6.6 6.0 6.0 6.1 6.9 7.3 7.2 7.2 7.4 6.9 6.6 6.5 6.2 6.1 6.3 6.5 6.6 6.5 6.0 5.2 4.5 4.5 4.5 3.9 2.7 2.8
7.3 7.6 7.6 7.6 7.8 7.9 8.1 8.2 8.0 7.8 7.3 7.1 7.3 7.1 7.2 7.1 6.8 6.0 5.6 5.9 6.4 6.3 6.9 7.0 7.0 7.1 7.2 7.0 6.5 6.2 6.4 6.1 6.4 6.3 5.7 5.2 5.1 4.8 4.8 4.3 3.9 2.6 2.7 2.8
7.4 7.2 7.4 7.5 7.8 7.9 7.9 7.9 7.6 7.8 7.5 7.4 7.4 7.2 7.0 7.1 7.2 6.3 6.4 5.6 5.9 5.9 6.2 6.6 6.7 6.6 6.5 6.5 6.6 6.4 6.3 6.3 6.1 6.0 5.4 5.2 4.9 4.9 4.5 4.0 2.8 2.7 2.8 3.2
7.6 7.5 7.2 7.2 8.0 7.7 7.9 8.0 7.9 7.8 7.7 7.3 7.1 7.7 7.3 6.6 6.9 6.7 6.8 6.3 5.8 5.9 6.1 6.4 6.5 6.4 6.3 6.3 5.6 5.4 5.5 5.4 5.3 5.3 5.2 4.9 4.8 4.3 3.9 3.3 2.8 2.7 3.1 3.7
Wind_Speed
7 5 14 20 16 12 11 10 13 12 10 9 17 17 11 16 10 10 9 9 10 10 10 10 13 13 22 22 22 21 19 19 15 11 10 8 10 6 5 6 14 14 14 13
8 19 21 15 7 15 16 19 23 18 14 15 20 16 10 10 9 14 11 10 10 9 9 9 8 9 21 24 22 22 20 20 16 13 11 6 4 4 6 5 9 13 13 13
15 21 17 15 15 18 20 19 19 19 13 16 19 19 13 12 7 6 7 8 9 11 10 9 9 10 18 22 21 20 21 21 18 15 10 8 5 4 4 7 5 5 13 11
10 19 19 17 20 19 21 16 19 19 14 13 5 15 23 6 11 10 10 10 11 12 9 10 11 9 17 22 23 23 22 22 18 19 16 19 12 11 7 8 5 6 13 11
9 15 23 24 25 19 20 18 19 18 16 12 15 8 25 7 13 9 14 16 14 17 13 11 11 12 13 19 22 22 22 22 19 20 18 14 14 8 6 8 11 8 6 12
19 16 12 12 19 18 17 21 18 15 15 16 23 13 25 18 15 9 16 14 12 18 16 17 18 10 15 17 22 21 21 21 21 19 20 20 17 12 11 11 10 9 7 6
14 21 19 18 23 20 18 14 13 12 15 17 18 11 24 5 18 22 21 20 19 11 18 17 14 10 14 17 16 18 22 20 21 19 19 19 18 17 17 14 11 12 9 5
6 7 17 14 13 14 16 12 10 19 11 19 14 18 21 16 15 19 23 19 22 13 14 16 13 10 17 20 19 20 22 21 20 17 17 15 18 10 11 13 11 10 9 8
4 14 17 21 15 20 23 14 22 17 13 13 19 27 29 19 23 28 24 16 20 20 13 16 11 10 15 20 22 20 20 19 20 18 16 15 16 16 13 13 12 9 8 9
11 16 20 22 17 22 16 17 13 13 16 19 11 16 15 31 16 12 12 12 17 17 16 12 9 10 14 19 19 17 20 22 20 20 17 15 15 16 15 14 14 12 11 11
8 4 21 4 8 19 17 13 15 15 5 9 8 11 23 31 21 22 24 15 12 11 12 9 9 8 14 15 16 15 16 18 16 15 15 15 14 17 16 15 12 15 14 14
4 2 7 17 20 16 17 20 19 10 13 6 12 15 14 10 17 13 13 16 24 23 22 15 8 11 15 15 15 15 14 16 15 15 14 15 13 16 15 14 16 15 14 13
2 2 5 16 7 3 4 12 18 21 10 15 6 7 21 22 25 26 16 19 12 13 8 8 10 13 14 13 14 13 12 12 12 13 13 13 15 14 15 17 17 16 15 12
4 5 10 11 15 14 16 18 18 15 9 9 14 19 29 27 20 20 16 17 13 10 7 4 9 12 12 13 14 13 12 12 13 12 14 14 15 14 15 13 16 14 13 13
2 8 10 13 18 17 17 19 20 19 23 19 20 19 26 29 22 20 22 27 20 18 9 6 7 12 15 14 13 13 12 13 14 14 14 14 14 15 14 14 15 13 12 11
4 6 7 18 18 18 20 16 14 18 22 20 24 19 20 31 22 22 21 26 18 9 10 9 9 13 18 18 17 17 16 15 16 16 15 14 15 15 15 13 15 14 13 13
4 3 1 15 15 16 15 18 16 14 19 14 15 19 19 27 19 22 21 16 23 22 10 9 9 12 15 17 19 19 18 16 16 16 16 16 16 16 15 13 13 12 12 12
10 6 3 12 11 20 16 14 20 16 15 14 14 17 17 23 22 22 21 21 24 22 11 10 9 13 15 17 17 17 18 19 18 17 17 17 17 17 16 16 13 10 9 11
15 11 7 9 14 17 15 15 10 14 23 15 13 17 20 21 16 24 22 17 21 20 18 12 12 13 17 19 19 20 19 18 17 18 19 19 19 19 18 16 14 10 10 9
17 17 10 10 16 22 21 8 5 8 14 19 10 16 19 11 12 17 15 19 21 25 17 10 9 11 15 18 21 22 21 21 21 20 18 17 18 18 18 17 14 11 10 9
2 3 12 13 12 11 17 21 11 15 14 7 11 13 19 7 5 17 20 25 24 24 23 19 9 14 17 20 22 23 22 22 19 16 17 17 17 18 17 15 12 11 10 10
7 3 5 5 8 13 23 12 15 16 8 6 6 10 16 14 14 18 24 29 28 26 11 9 8 8 14 22 23 21 21 17 19 20 19 18 18 14 14 17 11 11 10 9
15 11 4 9 6 6 4 6 8 6 11 11 8 11 15 8 8 14 17 27 19 13 2 2 6 8 16 22 24 22 17 22 22 21 20 18 18 16 16 15 12 9 9 8
9 15 8 14 21 22 19 19 18 8 14 17 13 8 10 13 7 2 8 20 12 10 9 6 14 14 12 7 9 17 22 24 24 22 20 18 18 16 14 9 8 9 8 7
11 5 15 17 22 20 20 18 21 21 18 9 12 13 11 14 10 7 5 9 10 8 8 5 12 15 16 15 13 11 16 23 22 20 18 16 14 16 13 10 9 7 6 10
5 14 7 11 16 7 13 11 10 12 14 12 15 13 10 11 14 14 11 6 3 4 5 8 10 14 13 19 17 12 13 17 20 18 14 13 12 11 10 10 6 13 10 11
Wind_Direction
174 175 218 218 217 233 268 261 254 252 251 258 255 273 248 221 218 237 240 231 224 221 222 214 216 206 167 172 169 170 164 169 165 179 179 184 197 169 150 143 150 150 159 163
243 221 223 232 234 240 240 247 257 270 266 279 281 276 266 260 224 210 208 226 231 225 227 228 203 202 164 172 174 169 170 168 173 178 179 167 161 154 148 139 141 154 157 156
214 234 226 227 225 243 250 246 255 253 258 251 273 284 275 270 235 233 223 199 218 223 228 231 224 193 162 171 173 172 173 173 174 175 161 129 124 131 139 158 144 175 159 151
232 260 246 245 226 226 248 251 260 265 269 262 217 273 272 250 267 246 236 231 231 234 210 213 218 206 168 174 175 174 174 174 174 171 167 163 172 177 178 164 146 155 149 143
222 225 232 242 239 227 238 245 253 266 268 276 268 249 263 229 249 273 251 242 238 235 225 225 214 199 187 171 175 178 175 173 171 174 168 163 170 176 153 154 153 149 143 144
270 286 291 276 272 261 262 266 272 271 258 254 252 236 271 247 249 254 268 255 235 236 235 229 232 189 188 172 175 174 173 173 174 173 169 170 167 160 160 162 160 159 149 145
285 275 283 277 284 276 259 261 254 265 251 249 250 236 253 211 235 240 249 261 263 262 229 228 219 186 180 172 166 172 173 172 175 175 172 167 161 164 168 168 165 159 157 153
265 297 229 232 241 260 263 249 249 242 245 267 283 245 241 260 256 251 247 260 268 252 230 218 209 189 177 177 168 164 174 171 169 169 177 167 158 159 167 169 166 167 165 155
227 251 261 271 279 247 257 249 252 271 253 243 244 255 283 276 256 255 254 251 258 269 236 215 203 192 175 178 176 169 165 168 170 170 170 172 175 155 167 164 165 163 152 154
243 270 257 270 283 281 263 254 251 233 244 251 249 252 244 256 260 293 281 280 268 259 229 211 197 174 181 173 176 166 167 168 167 176 169 177 169 156 164 161 163 163 156 149
270 341 290 324 244 257 279 279 262 255 206 231 248 239 230 253 259 276 278 297 305 290 278 220 194 172 166 164 158 159 157 155 154 159 163 158 161 151 165 164 158 157 148 149
48 156 286 282 284 265 261 261 276 272 261 244 241 254 248 250 240 254 274 303 297 292 283 215 153 130 147 150 151 153 154 155 157 154 152 155 154 154 151 155 147 151 147 147
107 56 323 313 327 339 317 344 344 318 259 228 248 258 267 258 269 272 274 281 294 274 224 135 131 142 148 150 150 151 151 148 146 147 149 153 155 162 156 156 144 147 141 142
163 188 232 257 263 281 289 289 298 303 288 292 245 259 271 268 253 258 275 260 314 309 313 133 135 146 151 155 154 149 146 147 147 149 161 159 163 165 152 158 141 140 145 136
355 285 284 284 273 268 276 293 290 275 275 289 299 264 264 265 263 260 270 276 289 262 258 185 167 160 161 159 159 155 154 154 157 159 162 162 160 153 148 149 136 136 133 136
48 301 308 284 284 287 280 272 283 277 268 264 271 275 243 270 291 280 251 263 255 246 263 248 189 175 168 170 167 164 165 165 164 165 161 151 149 148 147 144 143 141 145 140
198 201 312 276 294 300 271 244 251 272 283 279 284 290 287 275 264 269 278 264 281 277 241 223 189 184 178 174 172 169 165 161 164 159 156 155 153 147 143 140 135 145 141 141
267 233 190 272 305 270 263 240 242 258 265 264 266 276 305 293 294 272 263 258 265 272 254 234 211 191 184 176 170 159 159 161 163 160 157 157 154 147 144 139 139 132 135 141
224 241 248 254 260 285 297 260 262 275 279 270 282 295 292 301 304 286 273 280 267 265 259 255 230 201 179 173 164 160 162 162 163 166 164 162 155 148 141 139 137 142 140 138
226 223 212 243 255 261 271 291 288 305 289 284 288 278 295 328 311 293 314 303 283 266 265 264 229 207 178 171 161 162 168 167 172 172 162 157 154 146 145 140 140 143 148 145
209 190 221 236 247 256 252 276 265 245 252 39 354 338 329 313 269 305 326 314 291 277 269 252 204 197 188 174 164 168 171 174 165 149 144 151 150 141 137 131 133 132 137 138
214 198 206 213 235 264 249 268 237 246 301 313 315 298 300 298 312 326 327 317 311 262 227 220 221 215 182 174 168 167 172 154 143 142 144 143 138 135 134 130 129 137 138 141
243 219 200 194 216 240 254 266 260 286 289 289 284 301 298 293 315 327 322 314 304 313 313 13 244 216 173 173 170 164 146 139 138 137 140 137 135 136 136 131 136 136 144 155
256 245 245 263 254 257 262 267 270 287 289 285 292 297 285 279 286 299 307 312 313 327 340 66 76 56 46 67 113 135 139 136 138 138 136 135 132 127 119 127 137 155 155 140
237 136 227 248 259 268 266 257 262 267 264 265 279 282 277 277 252 246 266 310 329 320 339 353 95 100 91 78 86 112 129 135 134 130 131 129 127 127 129 137 156 164 140 164
213 242 231 250 257 220 261 253 243 253 263 273 275 276 269 254 260 235 231 193 244 308 357 63 73 96 100 109 111 106 118 126 125 123 125 127 129 129 138 140 109 71 124 134